FW9130 Weather Reports


time (UTC)temp
C
wind
direction
speed
KPH
gust
KPH
rain 1hr
cm
rain 24hr
cm
rain mn
cm
humidity
%
barometer
mb
20260507010925 7 97 1.6 1.6 0.00 0.00 0.00 98 1011.7
20260507010421 7 48 3.2 3.2 0.00 0.00 0.00 98 1011.7
20260507005918 7 17 3.2 3.2 0.00 0.00 0.00 99 1011.6
20260507005415 7 88 0.0 0.0 0.00 0.00 0.00 99 1011.2
20260507004912 7 95 1.6 3.2 0.00 0.00 0.00 99 1011.3
20260507004408 7 6 1.6 3.2 0.00 0.00 0.00 99 1011.2
20260507003906 7 98 1.6 3.2 0.00 0.00 0.00 99 1010.9
20260507003401 7 66 1.6 1.6 0.00 0.00 0.00 99 1011.0
20260507002857 7 46 1.6 3.2 0.00 0.00 0.00 99 1010.9
20260507002353 7 87 0.0 0.0 0.00 0.00 0.00 99 1011.0
20260507001850 8 94 0.0 0.0 0.00 0.00 0.00 99 1010.9
20260507001347 8 42 0.0 0.0 0.00 0.00 0.00 99 1010.9
20260507000843 8 76 0.0 0.0 0.00 0.00 0.00 99 1010.8
20260507000339 8 120 0.0 0.0 0.00 0.00 0.00 99 1010.7
20260506235836 8 113 0.0 0.0 0.00 0.00 0.00 99 1010.6
20260506235332 8 128 0.0 0.0 0.00 0.00 0.00 99 1010.5
20260506234828 8 102 1.6 3.2 0.00 0.00 0.00 99 1010.6
20260506234326 8 96 0.0 1.6 0.00 0.00 0.00 99 1010.5
20260506233824 8 344 4.8 4.8 0.00 0.00 0.00 99 1010.1
20260506233319 9 87 1.6 1.6 0.00 0.00 0.00 99 1010.4
20260506232817 10 42 3.2 3.2 0.00 0.00 0.00 99 1010.1
20260506232312 10 75 3.2 3.2 0.00 0.00 0.00 99 1010.2
20260506231809 10 72 1.6 3.2 0.00 0.00 0.00 99 1010.1
20260506231307 10 103 1.6 1.6 0.00 0.00 0.00 99 1009.9
20260506230804 10 113 0.0 0.0 0.00 0.00 0.00 99 1010.1
20260506230301 10 79 0.0 1.6 0.00 0.00 0.00 99 1009.8
20260506225757 11 102 1.6 3.2 0.00 0.00 0.00 99 1009.9
20260506225254 11 70 3.2 3.2 0.00 0.00 0.00 99 1009.7
20260506224745 11 100 1.6 1.6 0.00 0.00 0.00 99 1009.6
20260506224243 12 66 1.6 3.2 0.00 0.00 0.00 99 1009.4
20260506223738 13 114 1.6 1.6 0.00 0.00 0.00 99 1009.4
20260506223234 14 134 1.6 1.6 0.00 0.00 0.00 99 1009.3
20260506222731 14 224 4.8 4.8 0.00 0.00 0.00 99 1009.2
20260506222226 14 128 0.0 0.0 0.00 0.00 0.00 99 1009.2
20260506221725 14 314 3.2 3.2 0.00 0.00 0.00 99 1009.1
20260506221223 14 225 3.2 3.2 0.00 0.00 0.00 99 1008.9
20260506220720 14 150 1.6 1.6 0.00 0.00 0.00 99 1008.7
20260506220214 14 140 0.0 1.6 0.00 0.00 0.00 99 1008.9
20260506215711 14 101 0.0 1.6 0.00 0.00 0.00 99 1008.8
20260506215207 14 106 1.6 1.6 0.00 0.00 0.00 99 1008.8
20260506214703 14 137 0.0 1.6 0.00 0.00 0.00 99 1008.8
20260506214201 14 125 0.0 1.6 0.00 0.00 0.00 99 1008.7
20260506213659 13 4 3.2 3.2 0.00 0.00 0.00 99 1008.9
20260506213156 13 128 1.6 1.6 0.00 0.00 0.00 99 1008.3
20260506212653 14 120 0.0 0.0 0.00 0.00 0.00 99 1008.5
20260506212148 13 192 4.8 4.8 0.00 0.00 0.00 99 1008.2
20260506211644 13 137 1.6 1.6 0.00 0.00 0.00 99 1008.5
20260506211141 13 60 1.6 3.2 0.00 0.00 0.00 99 1008.3
20260506210638 13 128 0.0 0.0 0.00 0.00 0.00 99 1008.6
20260506210134 13 60 1.6 1.6 0.00 0.00 0.00 99 1008.5
20260506205631 13 26 1.6 3.2 0.00 0.00 0.00 99 1008.3
20260506205126 13 83 1.6 1.6 0.00 0.00 0.00 99 1008.5
20260506204625 13 317 3.2 4.8 0.00 0.00 0.00 99 1008.5
20260506204121 13 346 3.2 3.2 0.00 0.00 0.00 99 1008.5
20260506203619 13 336 6.4 9.7 0.00 0.00 0.00 99 1008.2
20260506203116 13 158 1.6 1.6 0.00 0.00 0.00 99 1008.1
20260506202614 13 117 0.0 1.6 0.00 0.00 0.00 99 1008.1
20260506202110 13 97 1.6 1.6 0.00 0.00 0.00 99 1008.3
20260506201607 13 131 0.0 1.6 0.00 0.00 0.00 99 1008.2
20260506201103 13 152 1.6 1.6 0.00 0.00 0.00 99 1008.5
20260506200600 13 99 1.6 1.6 0.00 0.00 0.00 99 1008.2
20260506200057 13 312 1.6 1.6 0.00 0.00 0.00 99 1008.7
20260506195553 13 53 1.6 1.6 0.00 0.00 0.00 99 1008.6
20260506195049 13 317 3.2 3.2 0.00 0.00 0.00 99 1008.5
20260506194548 13 136 0.0 1.6 0.00 0.00 0.00 99 1008.3
20260506194043 13 163 1.6 3.2 0.00 0.00 0.00 99 1008.3
20260506193541 13 157 1.6 1.6 0.00 0.00 0.00 99 1008.5
20260506193038 13 226 4.8 4.8 0.00 0.00 0.00 99 1008.6
20260506192535 13 139 1.6 3.2 0.00 0.00 0.00 99 1008.8
20260506192031 13 137 0.0 0.0 0.00 0.00 0.00 99 1008.8
20260506191528 13 13 3.2 4.8 0.00 0.00 0.00 99 1008.6
20260506191024 13 228 1.6 3.2 0.00 0.00 0.00 99 1008.8
20260506190521 13 192 1.6 3.2 0.00 0.00 0.00 99 1009.0
20260506190019 13 150 1.6 1.6 0.00 0.00 0.00 99 1008.9
20260506185515 13 171 1.6 3.2 0.00 0.00 0.00 99 1008.9
20260506185012 13 135 0.0 1.6 0.00 0.00 0.00 99 1009.1
20260506184509 13 150 3.2 3.2 0.00 0.00 0.00 99 1009.1
20260506184006 13 163 1.6 1.6 0.00 0.00 0.00 99 1009.2
20260506183502 13 175 1.6 3.2 0.00 0.00 0.00 99 1009.1
20260506182959 13 217 1.6 1.6 0.00 0.00 0.00 99 1009.1
20260506182456 13 162 0.0 1.6 0.00 0.00 0.00 99 1009.0
20260506181953 13 114 1.6 1.6 0.00 0.00 0.00 99 1009.4
20260506181451 13 154 1.6 3.2 0.00 0.00 0.00 99 1009.5
20260506180948 13 150 1.6 1.6 0.00 0.00 0.00 99 1009.3
20260506180444 13 141 1.6 1.6 0.00 0.00 0.00 99 1009.4
20260506175941 13 172 3.2 3.2 0.00 0.00 0.00 99 1009.4
20260506175438 13 156 1.6 1.6 0.00 0.00 0.00 99 1009.2
20260506174934 13 174 3.2 3.2 0.00 0.00 0.00 99 1009.3
20260506174433 13 137 1.6 1.6 0.00 0.00 0.00 99 1009.4
20260506173929 13 135 0.0 0.0 0.00 0.00 0.00 99 1009.5
20260506173426 13 163 1.6 3.2 0.00 0.00 0.00 99 1009.5
20260506172923 13 174 3.2 8.0 0.00 0.00 0.00 99 1009.5
20260506172420 13 200 4.8 4.8 0.00 0.00 0.00 99 1009.4
20260506171917 13 193 4.8 4.8 0.00 0.00 0.00 99 1009.5
20260506171414 13 59 4.8 8.0 0.00 0.00 0.00 99 1009.4
20260506170912 13 145 1.6 1.6 0.00 0.00 0.00 99 1009.5
20260506170407 13 177 3.2 3.2 0.00 0.00 0.00 99 1009.5
20260506165901 13 159 1.6 3.2 0.00 0.00 0.00 99 1009.5
20260506165359 13 125 3.2 4.8 0.00 0.00 0.00 99 1009.4
20260506164855 13 154 4.8 4.8 0.00 0.00 0.00 99 1009.6
20260506164351 13 141 1.6 3.2 0.00 0.00 0.00 99 1009.5
20260506163850 13 229 3.2 3.2 0.00 0.00 0.00 99 1009.5
20260506163343 13 122 1.6 3.2 0.00 0.00 0.00 99 1009.7
20260506162839 13 184 3.2 3.2 0.00 0.00 0.00 99 1009.5
20260506162337 13 168 3.2 3.2 0.00 0.00 0.00 99 1009.7
20260506161835 13 138 1.6 3.2 0.00 0.00 0.00 99 1009.5
20260506161332 13 163 3.2 3.2 0.00 0.00 0.00 99 1009.5
20260506160829 13 167 6.4 9.7 0.00 0.00 0.00 99 1009.5
20260506160325 13 138 8.0 9.7 0.00 0.00 0.00 99 1009.5
20260506155824 13 160 6.4 8.0 0.00 0.00 0.00 99 1009.7
20260506155320 13 169 6.4 8.0 0.00 0.00 0.00 99 1009.8
20260506153433 13 175 4.8 4.8 0.00 0.00 0.00 99 1010.4
20260506152931 13 150 3.2 3.2 0.00 0.00 0.00 99 1010.7
20260506152427 13 181 4.8 8.0 0.00 0.00 0.00 99 1010.4
20260506151926 13 175 1.6 3.2 0.00 0.00 0.00 99 1010.1
20260506151422 13 148 3.2 3.2 0.00 0.00 0.00 99 1010.1
20260506150920 13 157 3.2 3.2 0.00 0.00 0.00 99 1010.0
20260506150416 13 150 3.2 3.2 0.00 0.00 0.00 99 1009.9
20260506145913 13 170 4.8 4.8 0.00 0.00 0.00 99 1010.0
20260506145409 13 168 3.2 3.2 0.00 0.00 0.00 99 1009.9
20260506144907 13 193 3.2 3.2 0.00 0.00 0.00 99 1009.9
20260506144403 13 161 1.6 3.2 0.00 0.00 0.00 99 1010.4
20260506143902 13 139 0.0 1.6 0.00 0.00 0.00 99 1010.2
20260506143358 13 164 0.0 0.0 0.00 0.00 0.00 99 1010.1
20260506142857 13 167 1.6 3.2 0.00 0.00 0.00 99 1010.2
20260506142354 13 169 0.0 0.0 0.00 0.00 0.00 99 1010.5
20260506141852 13 178 0.0 0.0 0.00 0.00 0.00 99 1010.5
20260506141350 13 162 0.0 1.6 0.00 0.00 0.00 99 1010.6
20260506140848 13 174 3.2 3.2 0.00 0.00 0.00 99 1010.6
20260506140345 13 344 4.8 8.0 0.00 0.00 0.00 99 1010.7
20260506135842 13 174 4.8 4.8 0.00 0.00 0.00 99 1010.7
20260506135338 13 175 3.2 3.2 0.00 0.00 0.00 99 1010.7
20260506134834 13 222 3.2 4.8 0.00 0.00 0.00 99 1010.8
20260506134331 13 145 1.6 1.6 0.00 0.00 0.00 99 1010.7
20260506133828 13 139 1.6 1.6 0.00 0.00 0.00 99 1010.7
20260506133325 13 139 1.6 1.6 0.00 0.00 0.00 99 1011.0
20260506132822 13 155 3.2 4.8 0.00 0.00 0.00 98 1011.0
20260506132319 13 176 1.6 3.2 0.00 0.00 0.00 98 1011.1
20260506131817 13 146 1.6 1.6 0.00 0.00 0.00 98 1010.9
20260506131313 13 186 3.2 3.2 0.00 0.00 0.00 97 1010.9
20260506130810 13 138 1.6 1.6 0.00 0.00 0.00 97 1011.1
20260506130306 13 134 1.6 3.2 0.00 0.00 0.00 96 1011.1
20260506125805 14 161 3.2 3.2 0.00 0.00 0.00 95 1010.8
20260506125305 14 182 3.2 3.2 0.00 0.00 0.00 95 1010.9
20260506124801 14 156 1.6 1.6 0.00 0.00 0.00 95 1010.8
20260506124257 14 172 4.8 4.8 0.00 0.00 0.00 94 1010.9
20260506123755 14 157 1.6 3.2 0.00 0.00 0.00 95 1010.9
20260506123254 14 197 3.2 4.8 0.00 0.00 0.00 95 1010.8
20260506122750 13 175 1.6 3.2 0.00 0.00 0.00 95 1010.6
20260506122247 14 70 3.2 3.2 0.00 0.00 0.00 95 1010.7
20260506121745 14 161 1.6 1.6 0.00 0.00 0.00 94 1010.6
20260506121242 14 136 1.6 1.6 0.00 0.00 0.00 93 1010.6
20260506120739 14 144 1.6 1.6 0.00 0.00 0.00 93 1010.6
20260506120237 14 143 1.6 1.6 0.00 0.00 0.00 92 1010.8
20260506115734 14 141 3.2 3.2 0.00 0.00 0.00 92 1010.7
20260506115232 14 123 1.6 3.2 0.00 0.00 0.00 90 1010.8
20260506114730 14 151 1.6 1.6 0.00 0.00 0.00 90 1010.8
20260506114227 14 165 3.2 3.2 0.00 0.00 0.00 89 1010.8
20260506113726 14 146 3.2 4.8 0.00 0.00 0.00 88 1010.8
20260506113223 15 161 1.6 1.6 0.00 0.00 0.00 87 1010.9
20260506112719 15 150 1.6 1.6 0.00 0.00 0.00 84 1010.9
20260506112217 15 155 3.2 3.2 0.00 0.00 0.00 84 1010.8
20260506111714 15 181 3.2 3.2 0.00 0.00 0.00 83 1010.9
20260506111212 15 139 1.6 1.6 0.00 0.00 0.00 83 1010.7
20260506110708 15 159 3.2 4.8 0.00 0.00 0.00 83 1010.8
20260506110206 15 166 3.2 3.2 0.00 0.00 0.00 82 1010.8
20260506105703 15 152 3.2 3.2 0.00 0.00 0.00 82 1010.5
20260506105159 15 154 1.6 3.2 0.00 0.00 0.00 82 1010.5
20260506104658 15 151 1.6 1.6 0.00 0.00 0.00 82 1010.4
20260506104155 15 145 1.6 1.6 0.00 0.00 0.00 81 1010.4
20260506103652 15 179 3.2 4.8 0.00 0.00 0.00 81 1010.6
20260506103149 15 182 4.8 4.8 0.00 0.00 0.00 81 1010.2
20260506102647 15 155 3.2 3.2 0.00 0.00 0.00 81 1009.9
20260506102144 15 176 3.2 3.2 0.00 0.00 0.00 80 1009.9
20260506101641 15 142 1.6 1.6 0.00 0.00 0.00 80 1010.4
20260506101138 15 130 3.2 3.2 0.00 0.00 0.00 80 1010.2
20260506100636 15 150 3.2 3.2 0.00 0.00 0.00 79 1010.2
20260506100134 15 157 3.2 3.2 0.00 0.00 0.00 78 1010.4
20260506095632 15 168 3.2 3.2 0.00 0.00 0.00 78 1010.5
20260506095129 15 157 1.6 3.2 0.00 0.00 0.00 77 1010.5
20260506094626 15 170 1.6 3.2 0.00 0.00 0.00 77 1010.5
20260506094124 15 186 1.6 3.2 0.00 0.00 0.00 76 1010.5
20260506093622 15 148 1.6 1.6 0.00 0.00 0.00 76 1010.0
20260506093119 15 166 3.2 3.2 0.00 0.00 0.00 75 1010.2
20260506092617 15 142 1.6 1.6 0.00 0.00 0.00 75 1010.5
20260506092113 15 163 3.2 3.2 0.00 0.00 0.00 74 1010.2
20260506091612 15 202 3.2 3.2 0.00 0.00 0.00 74 1010.5
20260506091109 15 150 1.6 3.2 0.00 0.00 0.00 74 1010.2
20260506090607 15 172 1.6 3.2 0.00 0.00 0.00 73 1010.4
20260506085559 15 169 3.2 3.2 0.00 0.00 0.00 73 1010.6
20260506085056 15 140 1.6 1.6 0.00 0.00 0.00 72 1010.6
20260506084553 15 136 0.0 1.6 0.00 0.00 0.00 72 1010.8
20260506084049 15 131 1.6 1.6 0.00 0.00 0.00 71 1010.7
20260506083547 15 153 1.6 3.2 0.00 0.00 0.00 71 1010.7
20260506083044 15 163 1.6 3.2 0.00 0.00 0.00 71 1010.7
20260506082540 15 133 1.6 1.6 0.00 0.00 0.00 71 1010.7
20260506082036 16 189 1.6 3.2 0.00 0.00 0.00 70 1010.6
20260506081535 16 145 1.6 1.6 0.00 0.00 0.00 70 1010.6
20260506081032 16 170 1.6 1.6 0.00 0.00 0.00 69 1010.8
20260506080529 16 142 1.6 1.6 0.00 0.00 0.00 69 1010.9
20260506073513 16 155 1.6 1.6 0.00 0.00 0.00 67 1010.8
20260506073010 16 98 3.2 3.2 0.00 0.00 0.00 67 1011.0
20260506072507 16 154 3.2 3.2 0.00 0.00 0.00 67 1010.9
20260506072004 16 154 1.6 3.2 0.00 0.00 0.00 66 1010.9
20260506071502 16 156 1.6 3.2 0.00 0.00 0.00 66 1010.8
20260506070959 16 167 4.8 4.8 0.00 0.00 0.00 66 1010.9
20260506070456 16 185 3.2 3.2 0.00 0.00 0.00 66 1011.0
20260506062434 16 138 1.6 1.6 0.00 0.00 0.00 66 1011.2
20260506061929 16 152 1.6 1.6 0.00 0.00 0.00 66 1011.4
20260506061426 16 148 1.6 1.6 0.00 0.00 0.00 65 1011.5
20260506060924 16 152 1.6 1.6 0.00 0.00 0.00 65 1011.4
20260506060422 16 204 3.2 4.8 0.00 0.00 0.00 65 1011.5
20260506051354 16 189 3.2 3.2 0.00 0.00 0.00 64 1011.7
20260506050851 16 140 1.6 1.6 0.00 0.00 0.00 64 1011.9
20260506050349 16 185 3.2 3.2 0.00 0.00 0.00 64 1011.8
20260506044839 17 171 3.2 3.2 0.00 0.00 0.00 62 1012.0
20260506044337 17 143 1.6 1.6 0.00 0.00 0.00 62 1011.9
20260506043834 17 233 4.8 4.8 0.00 0.00 0.00 61 1012.0
20260506043331 17 139 1.6 1.6 0.00 0.00 0.00 62 1012.0
20260506042829 17 155 3.2 4.8 0.00 0.00 0.00 61 1011.7
20260506042328 17 172 3.2 3.2 0.00 0.00 0.00 61 1012.1
20260506041827 17 151 3.2 3.2 0.00 0.00 0.00 61 1012.0
20260506041323 17 149 1.6 1.6 0.00 0.00 0.00 61 1012.3
20260506040820 17 140 1.6 3.2 0.00 0.00 0.00 60 1012.0
20260506040318 17 159 1.6 3.2 0.00 0.00 0.00 59 1012.0
20260506035814 17 155 1.6 1.6 0.00 0.00 0.00 59 1012.0
20260506035311 17 156 3.2 4.8 0.00 0.00 0.00 59 1012.3
20260506034808 17 163 3.2 3.2 0.00 0.00 0.00 59 1012.0
20260506034305 17 141 1.6 3.2 0.00 0.00 0.00 59 1012.1
20260506033802 17 178 4.8 4.8 0.00 0.00 0.00 59 1012.0
20260506033259 17 161 3.2 3.2 0.00 0.00 0.00 58 1012.0
20260506032756 17 160 1.6 1.6 0.00 0.00 0.00 58 1012.1
20260506032253 18 155 1.6 3.2 0.00 0.00 0.00 57 1012.0
20260506031749 18 160 4.8 4.8 0.00 0.00 0.00 57 1012.0
20260506031247 18 186 4.8 4.8 0.00 0.00 0.00 57 1011.8
20260506030745 18 109 3.2 3.2 0.00 0.00 0.00 56 1012.0
20260506030243 18 164 1.6 1.6 0.00 0.00 0.00 56 1012.0
20260506025739 18 156 1.6 3.2 0.00 0.00 0.00 56 1012.1
20260506025235 18 172 3.2 3.2 0.00 0.00 0.00 55 1012.0
20260506024733 18 166 3.2 3.2 0.00 0.00 0.00 55 1012.0
20260506024229 18 193 3.2 3.2 0.00 0.00 0.00 55 1012.0
20260506023725 18 174 4.8 4.8 0.00 0.00 0.00 55 1012.0
20260506023223 18 78 4.8 8.0 0.00 0.00 0.00 54 1012.1
20260506022719 18 168 6.4 8.0 0.00 0.00 0.00 54 1012.3
20260506022217 18 181 4.8 4.8 0.00 0.00 0.00 54 1012.1
20260506021715 19 174 1.6 3.2 0.00 0.00 0.00 54 1012.1
20260506021212 19 138 3.2 3.2 0.00 0.00 0.00 54 1012.1
20260506020708 19 176 4.8 4.8 0.00 0.00 0.00 53 1012.1
20260506020206 19 134 3.2 4.8 0.00 0.00 0.00 53 1011.9
20260506015704 19 142 3.2 3.2 0.00 0.00 0.00 54 1011.9
20260506015201 19 185 3.2 3.2 0.00 0.00 0.00 53 1012.1
20260506014658 20 159 3.2 3.2 0.00 0.00 0.00 53 1012.0
20260506014154 20 160 4.8 4.8 0.00 0.00 0.00 53 1012.1
20260506013652 20 198 4.8 4.8 0.00 0.00 0.00 52 1011.8
20260506013149 20 193 6.4 8.0 0.00 0.00 0.00 51 1011.7
20260506012645 20 185 4.8 4.8 0.00 0.00 0.00 52 1011.8
20260506012142 20 165 3.2 3.2 0.00 0.00 0.00 51 1011.6
20260506011639 20 162 3.2 3.2 0.00 0.00 0.00 51 1011.4